Terminal Aerodrome Forecast
Issued by NWS Austin/San Antonio, TX

Home | Current Version | Previous Version | Text Only | Print | Product List | Glossary On
Versions: 1 2 3 4 5 6 7 8 9 10 11 12 13 14 15 16 17 18 19 20 21 22 23 24 25 26 27
000
FTUS44 KEWX 050343 AAB
TAFDRT
TAF AMD
KDRT 050343Z 0504/0524 33015G25KT 6SM -TSRA BKN030CB
      TEMPO 0504/0505 33015G25KT 4SM -TSRA OVC015CB
     FM051400 32018KT P6SM OVC035=

USA.gov is the U.S. government's official web portal to all federal, state and local government web resources and services.